Timeline UpdatesTrip UpdatesNews PostsPvt PostsTravel TipsAdmin PostsConv PostsFollowed PostsChat RequestsBlog PostsPNR Posts

Disclaimer
Search
 
 
Wed Jul 30, 2014 14:37:08 ISTHomeTrainsΣChainsAtlasPNRForumGalleryNewsFAQTripsMembersLoginFeedback
No Recent News for this Train
Other Trains in the News **new
Latest...
.
Thu Jan 03, 2013 (07:52PM)
⇐ Return Journey: Train# 12137

12138/Punjab Mail

Dec 31 2013 (1:19PM)
Change Departure Station:
Change Arrival Station:
Post a Train Travel TipPost a Train Travel Tip **new
Post a Comment/Question/Picture/VideoPost a Comment/Question/Picture/Video
Inaugural Run
Sat Jun 01, 1912
Pantry/Catering
✓ Pantry Car Avbl
✓ Catering Avbl
RSA - Rake Sharing
No RSA.
Rake/Coach Composition
Loco-SLR(Ladies+ RMS)-GEN (Military)-HA1-A1-AB1-B1-B2-B3-B4-B5-S1-PC-S2-S3-S4-S5-S6-S7-S8-S9-S10-GEN-GEN-SLR
Loco
FZR-NDLS=> BGKT WDP-4/4B; NDLS-IGP=> GZB WAP-4; IGP-CSTM=> KYN WCAM-2P/3
News    PNR    Forum    Time-Table    Availability    Fare Chart    Map    Arr/Dep History    Trips    Gallery    ΣChains    X/O    Timeline    
Travel Time: 1h 36m    3 halts    Distance: 71 km    Avg Speed: 44 km/hr
Type: SuperFast
Zone: CR/Central
Departs @ 03:14 (Avg 9m late)
Platform# ???
SMTWTFS
Rohtak Junction/ROK 
Arrives @ 04:50 (Avg 10m late)
Platform# 3
SMTWTFS
New Delhi/NDLS 

3 halts. 16 intermediate Stations between Rohtak Junction and New Delhi

Show ALL intermediate Stations  Show Old Time-Table

#CodeStation NameX/OArrivesAvgDepartsAvgHaltPFDay#KmSpeedElevZoneAddress
1FZRFirozpur Cantt. Junction (5)  -21:40+211-316.477200mNRFirozpur Cantt 152001, Punjab
2FDKFaridkot (3)  22:05+922:07+92m11-284.155202mNRFaridkot, Punjab
3KKPKot Kapura Junction (3)  22:21+1022:23+102m11-271.4650mNRKotkapura, Punjab
4GJUTGangsar Jaitu (3)X  22:38+1022:40+102m11-255.161207mNRJaitu, Punjab
5GNAGoneana Bhai Jagta (3)  22:54+1122:56+122m11-240.925206mNRGoniana, Punjab
6BTIBathinda Junction (6)X  23:25+023:35+210m41-228.679208mNRBathinda, Punjab
7MAURMaur  00:02+1200:04+122m12-193.175220mNRMaur Mandi, Punjab
8MSZMansa  00:19+1300:21+132m12-174.469222mNRMansa, Punjab
9BLZBudhlada  00:35+1400:37+142m12-158.371223mNRBudhlada, Punjab
10BRZBareta  00:50+1500:52+152m12-142.953223mNRBareta, Punjab
11JHLJakhal JunctionX  01:08+1301:10+132m--2-128.752225mNRJakhal, Haryana
12TUNTohana (2)X  01:24+1401:26+142m12-116.480232mNRTohana, Haryana
13NRWNarwana Junction (4)  01:45+1701:47+172m--2-91.060235mNRWay to Narwana, Haryana
14JINDJind Junction (3)X  02:21+1202:23+122m--2-57.170222mNR126102., Haryana
15ROK»Rohtak Junction (3)»  03:12+803:14+92m--20.081220mNRRohtak, Haryana
16BGZBahadurgarh  03:44+1303:46+132m--240.348220mNRBahadurgarh, Haryana
17SSBShakur Basti  04:11+804:13+92m--260.235216mNRPitampura, Delhi NCT
18DKZDelhi KishanGanj (2)  04:25+1404:27+142m1267.210220mNRSarai Rohilla, Delhi NCT
19NDLS•New Delhi (16)•X04:50+1005:15+925m3271.158215mNRNew Delhi, Delhi NCT
20FDBFaridabad (4)  05:44+1705:46+162m3299.261206mNRold Faridabad, Haryana
21KSVKosi Kalan (3)O  06:57+1706:59+202m12171.065189mNCRKosi Kalan, Uttar Pradesh
22MTJMathura Junction (10)X  07:37+1707:40+173m12212.473179mNCRMathura, Uttar Pradesh
23RKMRaja Ki Mandi (4)X  08:21+2008:23+202m22262.19170mNCRAgra, Uttar Pradesh
24AGCAgra Cantt. (6)X  08:50+1308:55+145m12266.190174mNCRAgra, Uttar Pradesh
25DHODholpur Junction (3)X  09:30+2809:32+282m22318.770177mNCRDholpur, Rajasthan
26MRAMorena (3)  09:55+2809:57+302m12345.575176mNCRMorena, Madhya Pradesh
27GWLGwalior Junction (4)  10:28+3610:33+395m12384.163214mNCRGwalior, Madhya Pradesh
28DBADabra (3)X  11:13+3911:15+402m12426.467204mNCRDabra(District-Gwalior), Madhya Pradesh
29DAADatia (2)O  11:42+4211:44+432m12456.837264mNCRDatia, Madhya Pradesh
30JHSJhansi Junction (7)X  12:25+2812:33+328m32481.861259mNCRJhansi, Uttar Pradesh
31BABBabina (3)X  12:58+4013:00+412m12507.386285mNCRBabina, Uttar Pradesh
32LARLalitpur (3)  13:45+4413:47+452m12572.165373mNCRLalitpur, Uttar Pradesh
33BINABina Junction (4)  14:45+5214:50+525m22635.086414mWCRJn Pt - KATNI/GUNA/ BPL/JHS, Madhya Pradesh
34BAQGanj Basoda (4)  15:22+5715:24+572m22680.884416mWCRVidisha, Madhya Pradesh
35BHSVidisha (3)X  15:52+1:0015:54+1:002m22720.157432mWCRVidisha, Madhya Pradesh
36BPLBhopal Junction (6)X  16:50+5516:55+575m12773.638497mWCRBhopal, Madhya Pradesh
37HBJBhopal HabibGanj (5)  17:05+5917:07+592m42779.970496mWCRHabibGanj, Madhya Pradesh
38HBDHoshangabad (2)X  18:05+1:1018:07+1:112m22847.239308mWCRHoshangabad, Madhya Pradesh
39ETItarsi Junction (7)  18:35+1:0818:40+1:165m42865.384329mWCRItarsi 461111, Madhya Pradesh
40BPFBanapura (2)X  19:04+1:2219:06+1:232m12898.882314mWCRBanapura, Madhya Pradesh
41HDHarda (3)X  19:37+1:2219:39+1:222m12941.176289mWCRHarda, Madhya Pradesh
42KKNKhirkiya (2)X  20:04+1:2020:06+1:202m12972.749281mWCRSH 15, Madhya Pradesh
43KNWKhandwa Junction (5)X  21:40+4921:45+495m221048.886310mCRKhandwa, Madhya Pradesh
44BAUBurhanpur (2)  22:33+5822:35+592m121117.665269mCRBurhanpur, Madhya Pradesh
45BSLBhusaval Junction (8)X  23:25+5523:35+5810m321172.160208mCRBhusaval 425201, Maharashtra
46JLJalgaon Junction (4)  23:59+1:0100:01+1:022m221196.296213mCRJalgaon 425001, Maharashtra
47CSNChalisgaon Junction (3)  00:59+1:1401:01+1:152m131288.883352mCRChalisgaon 424101, Maharashtra
48MMRManmad Junction (6)XO  01:50+1:2201:55+1:255m331356.387580mCRManmad 423104, Maharashtra
49NKNasik Road (3)X  02:45+1:3202:50+1:305m331429.143563mCRNashik 422101, Maharashtra
50DVLDevlali (3)X  02:58+1:2903:00+1:302m231434.832561mCRDist. Nashik 422401, Maharashtra
51IGPIgatpuri (4)04:25+5104:30+1:075m331479.745589mCRIgatpuri 422403, Maharashtra
52KYNKalyan Junction (8)X  06:20+1:2706:25+1:235m531561.55910mCRKalyan 421301, Maharashtra
53DRMumbai Dadar Central (8)X  07:10+3707:15+385m631606.0267mCRMumbai 400014, Maharashtra
54CSTMMumbai CST (18)  07:35+1:16-1431614.6-10mCRMumbai 400001, Maharashtra
Scroll to Top
Scroll to Bottom